sat.trackr.live / text

‹ back to catalog

STARLINK-32305

NORAD 61523 · 2024-183Q

PAYLOAD ACTIVE UNKNOWN

§ Identity

Operator
Country
US
Launch date
2024-10-15
Launch site
AFETR
Launch vehicle
Mass (kg)
RCS (m²)

Purposes: comms

External: N2YO · Heavens-Above · Gunter

§ Orbital elements

Epoch: 2026-05-24T23:50:28.870944Z

Period
94.11 min
Inclination
53.1598°
Eccentricity
0.0001139
Mean motion
15.30189641 rev/d
Perigee alt
474.5 km
Apogee alt
476.0 km
Semi-major
6,853.4 km
B*
1.8556e-5
RAAN
148.1050°
Arg perigee
81.0124°
Mean anomaly
279.1005°
Rev number
9,133

§ Raw data

STARLINK-323051 61523U 24183Q   26144.99338971  .00000190  00000+0  18556-4 0  99992 61523  53.1598 148.1050 0001139  81.0124 279.1005 15.30189641 91337

JSON: /api/v1/satellites/61523 · /tle

For live sub-satellite position, see the globe view (requires WebGL).

§ Visibility from observer

Set your observer location to see the next 7 days of passes ≥ 10°. The values pass through the URL so the page stays shareable.

No JS? Fill the form by hand. The geolocation button needs JavaScript.